COSMOS 2257

Satellite information

Favourite Embed

Satellite Type and Status

PAYLOADIN ORBIT

Key statistics

Satellite COSMOS 2257 at a glance.

Uptime

11861

Days in orbit

Revolutions

≈ 12.6

Per day

Orbit

LEO

Low Earth Orbit

Inclination

82.6

Latest

Satellite identification and parameters

Extended collection of information and parameters for COSMOS 2257.

Object identification

Identified? True

Debris? False

Object name: COSMOS 2257

International designator: 1993-038F

Object number (NORAD): 22692

Object ID (CCSDS): 22692

Country: COMMONWEALTH OF INDEPENDENT STATES (CIS)

Current information (Y/N): Y

RCS size: MEDIUM

Orbital parameters

Period: 114.082 minutes

Inclination: 82.5791 deg

SMA: 7791.787 km

Apoapsis: 1420.89 km

Periapsis: 1406.413 km

RAAN: 357.0864 deg

Eccentricy: 0.000929

Argument of periapsis: 58.1349 deg

Mean anomaly: 302.0645 deg

Mean motion: 12.62255224 rev/day

Mean motion (dot): 0.00000038 rev/day2

B* drag term: 0.00015182792 1/REarth

Two-line elements (TLE)

Creation date: Dec. 14, 2025, 3:07 a.m.

Reference frame: TEME

Reference center: EARTH

Epoch: Dec. 13, 2025, 12:45 p.m. UTC

TLE line 0: 0 COSMOS 2257

TLE line 1: 1 22692U 93038F 25347.53144053 .00000038 00000-0 15183-3 0 9992

TLE line 2: 2 22692 82.5791 357.0864 0009290 58.1349 302.0645 12.62255224496367

Live tracking on map

Real-time ground track for satellite COSMOS 2257.

In-orbit conjunctions

A list of the most updated potential collisions computed for object COSMOS 2257.

Target Orbit TCA Probability of collision Miss distance Type
COSMOS 761 LEO 2025-09-15 07:05:00 0.0007423485 195.0 (m) PAYLOAD

Associated space launch

Second generation store-dump military communications satellites

COSMOS 2257 was lifted into orbit during the mission ‘Tsiklon-3 | Strela-3 95 to 100’, on board a Tsiklon-3 space rocket.

The launch took place on June 24, 1993, 4:12 a.m. from 32/1.

For more information about the launch, click the button.

Launch to space Tsiklon-3 | Strela-3 95 to 100
Tsiklon-3 | Strela-3 95 to 100

Agency: N/A

Status: Launch Successful

Launch date: June 24, 1993, 4:12 a.m. UTC

Rocket: Tsiklon-3

Launch pad: 32/1

Location: Plesetsk Cosmodrome, Russian Federation

...

Latest news about this satellite

There are no fresh news available about this satellite. Check back as we update our databases every day.


Newsletter sign-up

Weekly statistics, charts and insights to help you stay on top of the space industry.